User: anonymous   Login
Location: *
(32.8667°N, 13.1833°E)
Time: 13:28:58
(UTC+00:00)
Language:

Cosmos 1464 Rocket - Orbit

View from above orbital plane
View from above orbital plane
View from above satellite
View from above satellite

Ground track
Ground track

The orbit data is extracted from the following two-line orbital elements,

1 14085U 83048B   19259.88344007 +.00000015 +00000-0 +27451-6 0  9992
2 14085 082.9462 199.8674 0032807 329.7490 030.1772 13.76293901823430
Epoch (UTC): 16 September 2019 21:12:09
Eccentricity: 0.0032807
inclination: 82.9462°
perigee height: 953 km
apogee height: 1001 km
right ascension of ascending node: 199.8674°
argument of perigee: 329.7490°
revolutions per day: 13.76293901
mean anomaly at epoch: 30.1772°
orbit number at epoch: 82343

The dashed part of the orbit path shows where the satellite is in the earth's shadow,  

DLR